Location: Trois-Rivi�res
(46.3500°N, 72.5500°W)
Time: 08:44:15
(UTC-04:00)

N. Korean satellite - Pass Details

Date: 07 October 2017
Orbit: 459 x 517 km, 97.2° (Epoch: 19 October)

Event Time Altitude Azimuth Distance (km) Brightness Sun altitude
Rises 18:59:47 0° 174° (S) 2,577 10.2 -8.0°
Reaches altitude 10° 19:01:53 10° 178° (S) 1,690 9.3 -8.4°
Maximum altitude 19:05:29 62° 259° (W) 558 7.2 -9.0°
Drops below altitude 10° 19:09:03 10° 341° (NNW) 1,671 9.6 -9.6°
Sets 19:11:07 0° 345° (NNW) 2,546 10.5 -10.0°
